Location: Trois-Rivi�res
(46.3500°N, 72.5500°W)
Time: 20:17:45
(UTC-04:00)

Vanguard 1 - All Passes

Search period start: 20 April 2018 00:00
Search period end: 30 April 2018 00:00
Orbit: 650 x 3833 km, 34.2° (Epoch: 20 April)

Date Brightness Start Highest point End Pass type
(mag) Time Alt. Az. Time Alt. Az. Time Alt. Az.
20 Apr - 00:07:32 10° SSW 00:10:27 16° SSE 00:13:56 10° ESE night (unlit)
20 Apr - 02:24:33 10° SW 02:29:35 31° S 02:37:24 10° ESE visible
20 Apr - 04:43:28 10° WSW 04:49:58 28° SSW 05:00:16 10° SE visible
20 Apr - 07:05:53 10° WSW 07:11:31 14° SSW 07:18:37 10° S daylight
21 Apr - 00:27:31 10° SSW 00:31:00 20° SSE 00:35:21 10° ESE visible
21 Apr - 02:45:13 10° WSW 02:50:20 30° S 02:58:18 10° ESE visible
21 Apr - 05:04:38 10° WSW 05:10:53 23° SSW 05:20:18 10° SSE visible
22 Apr - 00:47:48 10° SW 00:51:35 23° SSE 00:56:31 10° ESE visible
22 Apr - 03:06:00 10° WSW 03:11:09 28° S 03:19:03 10° SE visible
22 Apr - 05:26:10 10° WSW 05:31:50 19° SSW 05:39:47 10° SSE daylight
23 Apr - 01:08:16 10° SW 01:12:14 25° S 01:17:32 10° ESE visible
23 Apr - 03:26:54 10° WSW 03:31:58 25° S 03:39:33 10° SE visible
23 Apr - 05:48:25 10° SW 05:52:48 14° SSW 05:58:19 10° S daylight
23 Apr - 23:11:36 10° S 23:13:51 14° SSE 23:16:14 10° SE night (unlit)
24 Apr - 01:28:53 10° SW 01:32:55 25° S 01:38:27 10° ESE visible
24 Apr - 03:48:00 10° WSW 03:52:49 21° SSW 03:59:44 10° SSE visible
24 Apr - 23:31:33 10° SSW 23:34:26 17° SSE 23:37:37 10° SE night (unlit)
25 Apr - 01:49:37 10° SW 01:53:39 24° S 01:59:11 10° SE visible
25 Apr - 04:09:25 10° SW 04:13:43 17° SSW 04:19:26 10° SSE visible
25 Apr - 23:51:52 10° SW 23:55:04 19° S 23:58:42 10° SE night (unlit)
26 Apr - 02:10:28 10° SW 02:14:25 22° S 02:19:45 10° SE visible
26 Apr - 04:31:36 10° SW 04:34:36 13° SSW 04:38:11 10° S visible
26 Apr - 21:55:41 10° S 21:56:38 11° SSE 21:57:34 10° SSE visible
27 Apr - 00:12:24 10° SW 00:15:44 20° S 00:19:36 10° SE night (unlit)
27 Apr - 02:31:31 10° SW 02:35:12 18° S 02:40:01 10° SSE visible
27 Apr - 22:14:54 10° SSW 22:17:17 14° SSE 22:19:35 10° SE visible
28 Apr - 00:33:05 10° SW 00:36:25 20° S 00:40:21 10° SE night (unlit)
28 Apr - 02:52:54 10° SW 02:56:00 15° SSW 02:59:49 10° SSE visible
28 Apr - 22:35:01 10° SSW 22:37:56 17° S 22:40:48 10° SE visible
29 Apr - 00:53:54 10° SW 00:57:08 19° S 01:00:56 10° SE night (unlit)
29 Apr - 03:15:18 10° SSW 03:16:49 11° SSW 03:18:29 10° S visible
29 Apr - 20:38:43 10° S 20:39:16 10° SSE 20:39:50 10° SSE visible
29 Apr - 22:55:26 10° SW 22:58:36 18° S 23:01:44 10° SE visible
